| time (UTC) | temp C | wind direction | speed KPH | gust KPH | rain 1hr cm | rain 24hr cm | rain mn cm | humidity % | barometer mb |
| 20260906214033 | 6 | 186 | 0.0 | 1.6 | 0.00 | 0.00 | 0.00 | 99 | 1016.4 |
| 20260906213028 | 6 | 0.0 | 0.0 | 0.00 | 0.00 | 0.00 | 99 | 1016.4 | |
| 20260906212024 | 6 | 0.0 | 0.0 | 0.00 | 0.00 | 0.00 | 99 | 1016.3 | |
| 20260906211019 | 6 | 0.0 | 0.0 | 0.00 | 0.00 | 0.00 | 99 | 1016.3 | |
| 20260906210035 | 6 | 0.0 | 0.0 | 0.00 | 0.00 | 0.00 | 99 | 1016.3 | |
| 20260906205029 | 6 | 0.0 | 0.0 | 0.00 | 0.00 | 0.00 | 98 | 1016.2 | |
| 20260906204024 | 6 | 0.0 | 0.0 | 0.00 | 0.00 | 0.00 | 98 | 1016.2 | |
| 20260906203020 | 7 | 0.0 | 0.0 | 0.00 | 0.00 | 0.00 | 98 | 1016.2 | |
| 20260906202016 | 7 | 0.0 | 0.0 | 0.00 | 0.00 | 0.00 | 98 | 1016.2 | |
| 20260906201031 | 7 | 0.0 | 0.0 | 0.00 | 0.00 | 0.00 | 97 | 1016.2 | |
| 20260906200026 | 7 | 0.0 | 0.0 | 0.00 | 0.00 | 0.00 | 97 | 1016.1 | |
| 20260906195021 | 7 | 0.0 | 0.0 | 0.00 | 0.00 | 0.00 | 96 | 1016.0 | |
| 20260906194016 | 8 | 0.0 | 0.0 | 0.00 | 0.00 | 0.00 | 96 | 1015.8 | |
| 20260906193032 | 8 | 166 | 0.0 | 1.6 | 0.00 | 0.00 | 0.00 | 96 | 1015.7 |
| 20260906192108 | 8 | 0.0 | 0.0 | 0.00 | 0.00 | 0.00 | 95 | 1015.8 | |
| 20260906191023 | 8 | 0.0 | 0.0 | 0.00 | 0.00 | 0.00 | 95 | 1015.8 | |
| 20260906190020 | 9 | 0.0 | 0.0 | 0.00 | 0.00 | 0.00 | 94 | 1015.9 | |
| 20260906185035 | 9 | 0.0 | 0.0 | 0.00 | 0.00 | 0.00 | 93 | 1015.9 | |
| 20260906184030 | 10 | 0.0 | 0.0 | 0.00 | 0.00 | 0.00 | 91 | 1015.9 | |
| 20260906183026 | 10 | 0.0 | 0.0 | 0.00 | 0.00 | 0.00 | 90 | 1015.9 | |
| 20260906182021 | 11 | 0.0 | 0.0 | 0.00 | 0.00 | 0.00 | 89 | 1015.9 | |
| 20260906181016 | 11 | 0.0 | 0.0 | 0.00 | 0.00 | 0.00 | 86 | 1015.7 | |
| 20260906180112 | 12 | 0.0 | 0.0 | 0.00 | 0.00 | 0.00 | 84 | 1015.6 | |
| 20260906175026 | 12 | 0.0 | 0.0 | 0.00 | 0.00 | 0.00 | 80 | 1015.6 | |
| 20260906174022 | 13 | 0.0 | 0.0 | 0.00 | 0.00 | 0.00 | 78 | 1015.4 | |
| 20260906173037 | 15 | 0.0 | 0.0 | 0.00 | 0.00 | 0.00 | 73 | 1015.4 | |
| 20260906172052 | 16 | 0.0 | 0.0 | 0.00 | 0.00 | 0.00 | 69 | 1015.3 | |
| 20260906171107 | 16 | 0.0 | 0.0 | 0.00 | 0.00 | 0.00 | 64 | 1015.3 | |
| 20260906170044 | 16 | 195 | 0.0 | 1.6 | 0.00 | 0.00 | 0.00 | 63 | 1015.3 |
| 20260906165018 | 17 | 204 | 1.6 | 3.2 | 0.00 | 0.00 | 0.00 | 55 | 1015.1 |
| 20260906164033 | 18 | 249 | 3.2 | 9.7 | 0.00 | 0.00 | 0.00 | 52 | 1015.0 |
| 20260906163029 | 19 | 231 | 3.2 | 6.4 | 0.00 | 0.00 | 0.00 | 51 | 1015.0 |
| 20260906162024 | 19 | 236 | 3.2 | 6.4 | 0.00 | 0.00 | 0.00 | 50 | 1015.0 |
| 20260906161019 | 19 | 221 | 3.2 | 4.8 | 0.00 | 0.00 | 0.00 | 50 | 1015.1 |
| 20260906160035 | 19 | 248 | 6.4 | 11.3 | 0.00 | 0.00 | 0.00 | 50 | 1014.9 |
| 20260906155030 | 19 | 263 | 8.0 | 16.1 | 0.00 | 0.00 | 0.00 | 50 | 1014.8 |
| 20260906154026 | 19 | 245 | 6.4 | 12.9 | 0.00 | 0.00 | 0.00 | 51 | 1014.7 |
| 20260906153021 | 20 | 217 | 1.6 | 3.2 | 0.00 | 0.00 | 0.00 | 52 | 1014.8 |
| 20260906152017 | 19 | 212 | 1.6 | 3.2 | 0.00 | 0.00 | 0.00 | 51 | 1014.7 |
| 20260906151032 | 17 | 212 | 1.6 | 3.2 | 0.00 | 0.00 | 0.00 | 54 | 1014.7 |
| 20260906150027 | 18 | 231 | 4.8 | 9.7 | 0.00 | 0.00 | 0.00 | 54 | 1014.6 |
| 20260906145023 | 20 | 227 | 4.8 | 16.1 | 0.00 | 0.00 | 0.00 | 49 | 1014.5 |
| 20260906144019 | 20 | 239 | 4.8 | 11.3 | 0.00 | 0.00 | 0.00 | 50 | 1014.6 |
| 20260906143033 | 19 | 252 | 4.8 | 11.3 | 0.00 | 0.00 | 0.00 | 50 | 1014.7 |
| 20260906142028 | 18 | 231 | 4.8 | 9.7 | 0.00 | 0.00 | 0.00 | 52 | 1014.7 |
| 20260906141024 | 18 | 259 | 4.8 | 9.7 | 0.00 | 0.00 | 0.00 | 52 | 1014.7 |
| 20260906140019 | 19 | 242 | 4.8 | 14.5 | 0.00 | 0.00 | 0.00 | 49 | 1014.7 |
| 20260906135055 | 19 | 264 | 6.4 | 16.1 | 0.00 | 0.00 | 0.00 | 49 | 1014.6 |
| 20260906134030 | 18 | 257 | 6.4 | 12.9 | 0.00 | 0.00 | 0.00 | 51 | 1014.7 |
| 20260906133026 | 18 | 258 | 6.4 | 11.3 | 0.00 | 0.00 | 0.00 | 53 | 1014.6 |
| 20260906132040 | 17 | 252 | 4.8 | 11.3 | 0.00 | 0.00 | 0.00 | 53 | 1014.6 |
| 20260906131016 | 17 | 262 | 8.0 | 17.7 | 0.00 | 0.00 | 0.00 | 52 | 1014.7 |
| 20260906130031 | 18 | 253 | 6.4 | 16.1 | 0.00 | 0.00 | 0.00 | 51 | 1014.5 |
| 20260906125026 | 19 | 258 | 8.0 | 16.1 | 0.00 | 0.00 | 0.00 | 51 | 1014.5 |
| 20260906124042 | 18 | 257 | 4.8 | 12.9 | 0.00 | 0.00 | 0.00 | 53 | 1014.4 |
| 20260906123017 | 18 | 255 | 4.8 | 12.9 | 0.00 | 0.00 | 0.00 | 54 | 1014.4 |
| 20260906122032 | 17 | 226 | 3.2 | 6.4 | 0.00 | 0.00 | 0.00 | 57 | 1014.4 |
| 20260906121108 | 17 | 228 | 3.2 | 9.7 | 0.00 | 0.00 | 0.00 | 59 | 1014.3 |
| 20260906120023 | 17 | 261 | 1.6 | 6.4 | 0.00 | 0.00 | 0.00 | 59 | 1014.3 |
| 20260906115018 | 17 | 241 | 3.2 | 6.4 | 0.00 | 0.00 | 0.00 | 59 | 1014.4 |
| 20260906114034 | 17 | 240 | 3.2 | 14.5 | 0.00 | 0.00 | 0.00 | 59 | 1014.1 |
| 20260906113029 | 17 | 189 | 1.6 | 6.4 | 0.00 | 0.00 | 0.00 | 60 | 1014.0 |
| 20260906112025 | 17 | 223 | 3.2 | 6.4 | 0.00 | 0.00 | 0.00 | 59 | 1014.0 |
| 20260906111040 | 17 | 229 | 3.2 | 11.3 | 0.00 | 0.00 | 0.00 | 59 | 1013.9 |
| 20260906110015 | 17 | 262 | 6.4 | 14.5 | 0.00 | 0.00 | 0.00 | 59 | 1013.9 |
| 20260906105031 | 17 | 261 | 4.8 | 16.1 | 0.00 | 0.00 | 0.00 | 59 | 1013.7 |
| 20260906104027 | 18 | 230 | 3.2 | 9.7 | 0.00 | 0.00 | 0.00 | 61 | 1013.8 |
| 20260906103022 | 17 | 169 | 3.2 | 9.7 | 0.00 | 0.00 | 0.00 | 62 | 1013.7 |
| 20260906102016 | 17 | 247 | 3.2 | 11.3 | 0.00 | 0.00 | 0.00 | 62 | 1013.6 |
| 20260906101052 | 18 | 213 | 4.8 | 11.3 | 0.00 | 0.00 | 0.00 | 61 | 1013.5 |
| 20260906100028 | 18 | 215 | 3.2 | 6.4 | 0.00 | 0.00 | 0.00 | 61 | 1013.5 |
| 20260906095023 | 17 | 197 | 3.2 | 6.4 | 0.00 | 0.00 | 0.00 | 63 | 1013.5 |
| 20260906094038 | 17 | 243 | 6.4 | 16.1 | 0.00 | 0.00 | 0.00 | 65 | 1013.4 |
| 20260906093034 | 17 | 238 | 4.8 | 11.3 | 0.00 | 0.00 | 0.00 | 65 | 1013.4 |
| 20260906092029 | 17 | 257 | 6.4 | 11.3 | 0.00 | 0.00 | 0.00 | 66 | 1013.4 |
| 20260906091024 | 17 | 232 | 3.2 | 9.7 | 0.00 | 0.00 | 0.00 | 67 | 1013.4 |
| 20260906090019 | 16 | 252 | 6.4 | 12.9 | 0.00 | 0.00 | 0.00 | 68 | 1013.4 |
| 20260906085034 | 16 | 226 | 3.2 | 9.7 | 0.00 | 0.00 | 0.00 | 69 | 1013.3 |
| 20260906084029 | 16 | 229 | 4.8 | 11.3 | 0.00 | 0.00 | 0.00 | 70 | 1013.2 |
| 20260906083024 | 15 | 239 | 4.8 | 11.3 | 0.00 | 0.00 | 0.00 | 72 | 1013.0 |
| 20260906082019 | 16 | 243 | 6.4 | 11.3 | 0.00 | 0.00 | 0.00 | 72 | 1013.0 |
| 20260906081036 | 16 | 242 | 4.8 | 11.3 | 0.00 | 0.00 | 0.00 | 72 | 1012.7 |
| 20260906080031 | 15 | 254 | 4.8 | 11.3 | 0.00 | 0.00 | 0.00 | 74 | 1012.8 |
| 20260906075026 | 15 | 238 | 4.8 | 9.7 | 0.00 | 0.00 | 0.00 | 76 | 1012.6 |
| 20260906074021 | 15 | 235 | 6.4 | 14.5 | 0.00 | 0.00 | 0.00 | 78 | 1012.6 |
| 20260906073015 | 14 | 254 | 6.4 | 9.7 | 0.00 | 0.00 | 0.00 | 80 | 1012.6 |
| 20260906072032 | 13 | 249 | 6.4 | 9.7 | 0.00 | 0.00 | 0.00 | 81 | 1012.4 |
| 20260906071026 | 13 | 234 | 4.8 | 9.7 | 0.00 | 0.00 | 0.00 | 83 | 1012.5 |
| 20260906070022 | 13 | 224 | 3.2 | 9.7 | 0.00 | 0.00 | 0.00 | 84 | 1012.4 |
| 20260906065016 | 13 | 259 | 4.8 | 11.3 | 0.00 | 0.00 | 0.00 | 84 | 1012.2 |
| 20260906064032 | 12 | 236 | 3.2 | 6.4 | 0.00 | 0.00 | 0.00 | 86 | 1012.0 |
| 20260906063027 | 12 | 244 | 4.8 | 9.7 | 0.00 | 0.00 | 0.00 | 87 | 1011.9 |
| 20260906062022 | 11 | 240 | 3.2 | 11.3 | 0.00 | 0.00 | 0.00 | 88 | 1011.7 |
| 20260906061016 | 11 | 255 | 3.2 | 6.4 | 0.00 | 0.00 | 0.00 | 89 | 1011.7 |
| 20260906060052 | 11 | 247 | 3.2 | 9.7 | 0.00 | 0.00 | 0.00 | 91 | 1011.8 |
| 20260906055028 | 10 | 252 | 4.8 | 9.7 | 0.00 | 0.00 | 0.00 | 91 | 1011.8 |
| 20260906054023 | 10 | 226 | 3.2 | 6.4 | 0.00 | 0.00 | 0.00 | 92 | 1011.5 |
| 20260906053018 | 10 | 216 | 3.2 | 6.4 | 0.00 | 0.00 | 0.00 | 93 | 1011.5 |
| 20260906052034 | 10 | 230 | 3.2 | 6.4 | 0.00 | 0.00 | 0.00 | 94 | 1011.3 |
| 20260906051028 | 9 | 239 | 3.2 | 9.7 | 0.00 | 0.00 | 0.00 | 94 | 1011.2 |
| 20260906050024 | 9 | 220 | 3.2 | 6.4 | 0.00 | 0.00 | 0.00 | 95 | 1011.2 |
| 20260906045019 | 8 | 251 | 4.8 | 6.4 | 0.00 | 0.00 | 0.00 | 96 | 1011.2 |
| 20260906044035 | 8 | 227 | 3.2 | 6.4 | 0.00 | 0.00 | 0.00 | 97 | 1011.0 |
| 20260906043029 | 8 | 216 | 1.6 | 3.2 | 0.00 | 0.00 | 0.00 | 96 | 1010.8 |
| 20260906042025 | 8 | 245 | 3.2 | 4.8 | 0.00 | 0.00 | 0.00 | 96 | 1010.6 |
| 20260906041020 | 8 | 245 | 4.8 | 6.4 | 0.00 | 0.00 | 0.00 | 96 | 1010.6 |
| 20260906040056 | 8 | 234 | 3.2 | 4.8 | 0.00 | 0.00 | 0.00 | 96 | 1010.5 |
| 20260906035051 | 8 | 245 | 3.2 | 6.4 | 0.00 | 0.00 | 0.00 | 97 | 1010.5 |
| 20260906034026 | 8 | 229 | 3.2 | 11.3 | 0.00 | 0.00 | 0.00 | 97 | 1010.2 |
| 20260906033041 | 8 | 245 | 1.6 | 4.8 | 0.00 | 0.00 | 0.00 | 97 | 1010.1 |
| 20260906032015 | 8 | 227 | 4.8 | 6.4 | 0.00 | 0.00 | 0.00 | 97 | 1010.2 |
| 20260906031051 | 8 | 240 | 1.6 | 6.4 | 0.00 | 0.00 | 0.00 | 97 | 1010.0 |
| 20260906030027 | 8 | 219 | 1.6 | 4.8 | 0.00 | 0.00 | 0.00 | 97 | 1009.8 |
| 20260906025022 | 8 | 236 | 3.2 | 6.4 | 0.00 | 0.00 | 0.00 | 98 | 1009.7 |
| 20260906024018 | 8 | 246 | 4.8 | 9.7 | 0.00 | 0.00 | 0.00 | 99 | 1009.6 |
| 20260906023034 | 8 | 232 | 3.2 | 6.4 | 0.00 | 0.00 | 0.00 | 99 | 1009.4 |
| 20260906022028 | 7 | 237 | 1.6 | 6.4 | 0.00 | 0.00 | 0.00 | 99 | 1009.4 |
| 20260906021023 | 5 | 0.0 | 0.0 | 0.00 | 0.00 | 0.00 | 99 | 1009.3 | |
| 20260906020019 | 5 | 0.0 | 0.0 | 0.00 | 0.00 | 0.00 | 99 | 1009.1 | |
| 20260906015033 | 7 | 192 | 0.0 | 1.6 | 0.00 | 0.00 | 0.00 | 99 | 1009.1 |
| 20260906014048 | 7 | 204 | 0.0 | 1.6 | 0.00 | 0.00 | 0.00 | 99 | 1009.1 |
| 20260906013023 | 7 | 211 | 0.0 | 1.6 | 0.00 | 0.00 | 0.00 | 99 | 1009.0 |
| 20260906012038 | 6 | 207 | 0.0 | 3.2 | 0.00 | 0.00 | 0.00 | 99 | 1008.9 |
| 20260906011034 | 6 | 0.0 | 0.0 | 0.00 | 0.00 | 0.00 | 99 | 1008.7 | |
| 20260906010028 | 6 | 200 | 0.0 | 1.6 | 0.00 | 0.00 | 0.00 | 99 | 1008.6 |
| 20260906005044 | 5 | 0.0 | 0.0 | 0.00 | 0.00 | 0.00 | 99 | 1008.6 | |
| 20260906004020 | 5 | 0.0 | 0.0 | 0.00 | 0.00 | 0.00 | 99 | 1008.5 | |
| 20260906003035 | 5 | 0.0 | 0.0 | 0.00 | 0.00 | 0.00 | 99 | 1008.4 | |
| 20260906002029 | 5 | 0.0 | 0.0 | 0.00 | 0.00 | 0.00 | 99 | 1008.4 | |
| 20260906001024 | 6 | 0.0 | 0.0 | 0.00 | 0.00 | 0.00 | 99 | 1008.4 | |
| 20260906000040 | 6 | 0.0 | 0.0 | 0.00 | 0.00 | 0.00 | 99 | 1008.2 | |
| 20260905235016 | 6 | 0.0 | 0.0 | 0.00 | 0.00 | 0.00 | 99 | 1008.2 | |
| 20260905234031 | 6 | 0.0 | 0.0 | 0.00 | 0.00 | 0.00 | 99 | 1008.1 | |
| 20260905233046 | 6 | 0.0 | 0.0 | 0.00 | 0.00 | 0.00 | 99 | 1008.0 | |
| 20260905232041 | 6 | 0.0 | 0.0 | 0.00 | 0.00 | 0.00 | 99 | 1008.0 | |
| 20260905231016 | 6 | 0.0 | 0.0 | 0.00 | 0.00 | 0.00 | 99 | 1007.8 | |
| 20260905230031 | 6 | 0.0 | 0.0 | 0.00 | 0.00 | 0.00 | 99 | 1008.0 | |
| 20260905225026 | 7 | 0.0 | 0.0 | 0.00 | 0.00 | 0.00 | 99 | 1007.7 | |
| 20260905224022 | 7 | 0.0 | 0.0 | 0.00 | 0.00 | 0.00 | 99 | 1007.7 | |
| 20260905223019 | 8 | 0.0 | 0.0 | 0.00 | 0.00 | 0.00 | 99 | 1007.6 | |
| 20260905222033 | 8 | 0.0 | 0.0 | 0.00 | 0.00 | 0.00 | 99 | 1007.4 | |
| 20260905221029 | 8 | 0.0 | 0.0 | 0.00 | 0.00 | 0.00 | 99 | 1007.4 | |
| 20260905220024 | 8 | 0.0 | 0.0 | 0.00 | 0.00 | 0.00 | 99 | 1007.2 | |
| 20260905215018 | 8 | 0.0 | 0.0 | 0.00 | 0.00 | 0.00 | 99 | 1007.1 |